JST889 YBMK-YBBN

Flight info

Callsign JST889
Flight time 1h 8m
Altitude 35000
Route N0451F350 DCT MUNAR Y61 RUROX Y177 SMOKA DCT
Aircraft A320/M-SDE3FGHIRWYZ/LB1

Departure

Time 2026-04-14 09:11
Airport Mackay Airport (YBMK)

Arrival

Time 2026-04-14 10:20
Airport Brisbane International Airport (YBBN)
Time Latitude Longitude Altitude Speed Heading
2026-04-14 08:41 -21.17520 149.18214 28 ft 0 kts 288°
2026-04-14 09:05 -21.17507 149.18209 29 ft 3 kts 20°
2026-04-14 09:05 -21.17469 149.18235 31 ft 9 kts 30°
2026-04-14 09:05 -21.17422 149.18289 27 ft 11 kts 57°
2026-04-14 09:06 -21.17393 149.18337 23 ft 0 kts 57°
2026-04-14 09:07 -21.17386 149.18349 27 ft 6 kts 57°
2026-04-14 09:08 -21.17339 149.18414 27 ft 14 kts 22°
2026-04-14 09:08 -21.17249 149.18375 28 ft 15 kts 328°
2026-04-14 09:08 -21.17153 149.18310 25 ft 17 kts 328°
2026-04-14 09:08 -21.17030 149.18225 27 ft 25 kts 327°
2026-04-14 09:09 -21.16864 149.18113 24 ft 30 kts 328°
2026-04-14 09:09 -21.16680 149.17989 25 ft 32 kts 328°
2026-04-14 09:09 -21.16495 149.17865 24 ft 28 kts 328°
2026-04-14 09:09 -21.16376 149.17767 25 ft 16 kts 303°
2026-04-14 09:10 -21.16355 149.17751 27 ft 1 kts 40°
2026-04-14 09:10 -21.16353 149.17763 29 ft 1 kts 91°
2026-04-14 09:10 -21.16411 149.17804 27 ft 32 kts 145°
2026-04-14 09:10 -21.16637 149.17963 26 ft 84 kts 149°
2026-04-14 09:11 -21.17335 149.18430 30 ft 145 kts 148°
2026-04-14 09:11 -21.18233 149.19003 519 ft 153 kts 149°
2026-04-14 09:11 -21.19090 149.19579 1295 ft 144 kts 144°
2026-04-14 09:11 -21.19977 149.20202 1615 ft 163 kts 144°
2026-04-14 09:12 -21.21035 149.20948 1645 ft 199 kts 145°
2026-04-14 09:12 -21.22285 149.21824 1972 ft 224 kts 144°
2026-04-14 09:12 -21.23724 149.22646 2492 ft 246 kts 162°
2026-04-14 09:12 -21.25444 149.23015 3347 ft 254 kts 166°
2026-04-14 09:13 -21.27205 149.23393 4169 ft 261 kts 165°
2026-04-14 09:13 -21.29032 149.23799 4995 ft 268 kts 166°
2026-04-14 09:13 -21.30873 149.24212 5805 ft 273 kts 166°
2026-04-14 09:13 -21.32774 149.24638 6668 ft 277 kts 167°
2026-04-14 09:14 -21.34648 149.25049 7481 ft 282 kts 167°
2026-04-14 09:14 -21.36586 149.25476 8214 ft 287 kts 168°
2026-04-14 09:14 -21.38562 149.25914 8937 ft 292 kts 168°
2026-04-14 09:14 -21.40569 149.26361 9659 ft 297 kts 168°
2026-04-14 09:15 -21.42613 149.26815 10295 ft 303 kts 169°
2026-04-14 09:15 -21.44753 149.27288 10521 ft 325 kts 169°
2026-04-14 09:15 -21.47039 149.27794 10750 ft 343 kts 169°
2026-04-14 09:15 -21.49391 149.28334 11268 ft 349 kts 166°
2026-04-14 09:16 -21.51708 149.29208 11900 ft 352 kts 159°
2026-04-14 09:16 -21.54019 149.30181 12555 ft 354 kts 159°
2026-04-14 09:16 -21.56325 149.31153 13185 ft 357 kts 159°
2026-04-14 09:16 -21.58647 149.32133 13809 ft 360 kts 159°
2026-04-14 09:17 -21.61019 149.33132 14353 ft 363 kts 159°
2026-04-14 09:17 -21.63378 149.34123 14871 ft 367 kts 160°
2026-04-14 09:17 -21.65765 149.35127 15360 ft 371 kts 160°
2026-04-14 09:17 -21.68214 149.36156 15868 ft 374 kts 160°
2026-04-14 09:18 -21.70656 149.37185 16373 ft 378 kts 160°
2026-04-14 09:18 -21.73116 149.38220 16882 ft 382 kts 160°
2026-04-14 09:18 -21.75636 149.39277 17388 ft 385 kts 160°
2026-04-14 09:18 -21.78154 149.40335 17880 ft 389 kts 160°
2026-04-14 09:19 -21.80681 149.41398 18368 ft 393 kts 160°
2026-04-14 09:19 -21.83246 149.42476 18800 ft 397 kts 160°
2026-04-14 09:19 -21.85828 149.43562 19249 ft 400 kts 160°
2026-04-14 09:19 -21.88461 149.44669 19715 ft 402 kts 160°
2026-04-14 09:20 -21.91077 149.45774 20147 ft 406 kts 161°
2026-04-14 09:20 -21.93762 149.46912 20597 ft 410 kts 161°
2026-04-14 09:20 -21.96424 149.48037 21047 ft 412 kts 161°
2026-04-14 09:20 -21.99144 149.49184 21505 ft 415 kts 161°
2026-04-14 09:21 -22.01838 149.50321 21959 ft 418 kts 161°
2026-04-14 09:21 -22.04603 149.51489 22410 ft 421 kts 161°
2026-04-14 09:21 -22.07334 149.52641 22846 ft 424 kts 161°
2026-04-14 09:21 -22.10092 149.53802 23284 ft 426 kts 161°
2026-04-14 09:22 -22.12903 149.54990 23684 ft 429 kts 161°
2026-04-14 09:22 -22.15691 149.56171 24014 ft 432 kts 161°
2026-04-14 09:22 -22.18531 149.57375 24343 ft 435 kts 161°
2026-04-14 09:22 -22.21359 149.58573 24669 ft 437 kts 161°
2026-04-14 09:23 -22.24195 149.59776 24988 ft 440 kts 161°
2026-04-14 09:23 -22.27053 149.60992 25300 ft 442 kts 161°
2026-04-14 09:23 -22.29924 149.62208 25601 ft 445 kts 161°
2026-04-14 09:23 -22.32819 149.63432 25896 ft 448 kts 161°
2026-04-14 09:24 -22.34775 149.64262 26101 ft 449 kts 161°
2026-04-14 09:24 -22.37737 149.65518 26394 ft 452 kts 161°
2026-04-14 09:24 -22.40670 149.66763 26679 ft 454 kts 161°
2026-04-14 09:24 -22.43662 149.68033 26965 ft 457 kts 161°
2026-04-14 09:25 -22.46627 149.69292 27237 ft 459 kts 161°
2026-04-14 09:25 -22.49610 149.70562 27509 ft 462 kts 161°
2026-04-14 09:25 -22.52605 149.71844 27787 ft 464 kts 161°
2026-04-14 09:25 -22.55654 149.73147 28057 ft 466 kts 162°
2026-04-14 09:26 -22.58681 149.74440 28329 ft 469 kts 162°
2026-04-14 09:26 -22.61723 149.75742 28603 ft 471 kts 162°
2026-04-14 09:26 -22.64787 149.77054 28884 ft 474 kts 162°
2026-04-14 09:26 -22.67904 149.78382 29160 ft 476 kts 162°
2026-04-14 09:27 -22.70999 149.79698 29421 ft 479 kts 162°
2026-04-14 09:27 -22.74111 149.81023 29701 ft 481 kts 162°
2026-04-14 09:27 -22.77238 149.82358 29974 ft 483 kts 162°
2026-04-14 09:27 -22.80414 149.83712 30223 ft 486 kts 162°
2026-04-14 09:28 -22.83570 149.85060 30462 ft 488 kts 162°
2026-04-14 09:28 -22.86727 149.86407 30759 ft 488 kts 162°
2026-04-14 09:28 -22.89933 149.87777 31087 ft 487 kts 162°
2026-04-14 09:28 -22.93082 149.89127 31388 ft 488 kts 163°
2026-04-14 09:29 -22.96242 149.90487 31700 ft 488 kts 163°
2026-04-14 09:29 -22.99437 149.91863 32021 ft 488 kts 163°
2026-04-14 09:29 -23.02594 149.93222 32331 ft 488 kts 163°
2026-04-14 09:29 -23.05752 149.94580 32651 ft 488 kts 163°
2026-04-14 09:30 -23.08955 149.95957 32979 ft 488 kts 163°
2026-04-14 09:30 -23.12126 149.97320 33298 ft 489 kts 163°
2026-04-14 09:30 -23.15285 149.98675 33646 ft 489 kts 164°
2026-04-14 09:30 -23.18488 150.00048 33978 ft 489 kts 164°
2026-04-14 09:31 -23.21647 150.01402 34269 ft 489 kts 164°
2026-04-14 09:31 -23.24813 150.02762 34561 ft 488 kts 164°
2026-04-14 09:31 -23.27969 150.04122 34848 ft 487 kts 164°
2026-04-14 09:31 -23.31122 150.05483 35072 ft 487 kts 164°
2026-04-14 09:32 -23.37437 150.08208 35123 ft 488 kts 164°
2026-04-14 09:33 -23.46906 150.12306 35117 ft 487 kts 164°
2026-04-14 09:33 -23.53254 150.15057 35128 ft 487 kts 164°
2026-04-14 09:34 -23.59600 150.17798 35133 ft 487 kts 164°
2026-04-14 09:34 -23.65906 150.20527 35142 ft 487 kts 164°
2026-04-14 09:35 -23.72245 150.23283 35143 ft 487 kts 164°
2026-04-14 09:35 -23.78581 150.26030 35149 ft 487 kts 164°
2026-04-14 09:36 -23.84924 150.28784 35143 ft 487 kts 164°
2026-04-14 09:36 -23.91232 150.31527 35141 ft 488 kts 164°
2026-04-14 09:37 -23.97578 150.34288 35144 ft 488 kts 164°
2026-04-14 09:37 -24.03883 150.37038 35143 ft 488 kts 164°
2026-04-14 09:38 -24.09213 150.39367 35151 ft 488 kts 164°
2026-04-14 09:38 -24.15567 150.42143 35147 ft 489 kts 164°
2026-04-14 09:39 -24.21887 150.44908 35148 ft 489 kts 164°
2026-04-14 09:39 -24.28211 150.47675 35155 ft 489 kts 165°
2026-04-14 09:40 -24.34579 150.50467 35147 ft 489 kts 165°
2026-04-14 09:40 -24.40942 150.53265 35169 ft 489 kts 165°
2026-04-14 09:41 -24.47309 150.56060 35162 ft 489 kts 164°
2026-04-14 09:41 -24.53305 150.59798 35158 ft 500 kts 152°
2026-04-14 09:42 -24.59097 150.64034 35161 ft 500 kts 152°
2026-04-14 09:42 -24.64935 150.68300 35159 ft 500 kts 152°
2026-04-14 09:43 -24.70732 150.72536 35158 ft 500 kts 152°
2026-04-14 09:43 -24.76563 150.76796 35167 ft 500 kts 152°
2026-04-14 09:44 -24.82354 150.81029 35164 ft 500 kts 152°
2026-04-14 09:44 -24.88220 150.85336 35164 ft 500 kts 152°
2026-04-14 09:45 -24.94006 150.89588 35165 ft 499 kts 152°
2026-04-14 09:45 -24.99824 150.93865 35181 ft 499 kts 152°
2026-04-14 09:46 -25.05609 150.98119 35178 ft 499 kts 153°
2026-04-14 09:46 -25.11394 151.02369 35175 ft 499 kts 153°
2026-04-14 09:47 -25.17204 151.06663 35175 ft 499 kts 152°
2026-04-14 09:47 -25.23013 151.10965 35172 ft 499 kts 152°
2026-04-14 09:48 -25.28863 151.15292 35168 ft 499 kts 153°
2026-04-14 09:48 -25.34677 151.19580 35184 ft 499 kts 153°
2026-04-14 09:49 -25.39551 151.23185 35185 ft 499 kts 153°
2026-04-14 09:49 -25.45336 151.27471 35173 ft 500 kts 153°
2026-04-14 09:50 -25.51113 151.31767 35169 ft 500 kts 153°
2026-04-14 09:50 -25.56922 151.36095 35175 ft 500 kts 153°
2026-04-14 09:51 -25.62693 151.40389 35173 ft 500 kts 153°
2026-04-14 09:51 -25.68498 151.44708 35183 ft 499 kts 153°
2026-04-14 09:52 -25.74249 151.49033 35182 ft 502 kts 149°
2026-04-14 09:52 -25.79587 151.54223 35085 ft 508 kts 144°
2026-04-14 09:52 -25.82215 151.56843 34857 ft 508 kts 144°
2026-04-14 09:53 -25.84853 151.59470 34639 ft 508 kts 144°
2026-04-14 09:53 -25.87476 151.62080 34416 ft 507 kts 144°
2026-04-14 09:53 -25.90107 151.64692 34197 ft 506 kts 145°
2026-04-14 09:53 -25.92758 151.67326 33949 ft 504 kts 145°
2026-04-14 09:54 -25.95360 151.69918 33695 ft 502 kts 144°
2026-04-14 09:54 -25.97957 151.72508 33428 ft 499 kts 144°
2026-04-14 09:54 -26.00539 151.75084 32861 ft 500 kts 144°
2026-04-14 09:54 -26.03134 151.77671 32285 ft 502 kts 144°
2026-04-14 09:55 -26.05738 151.80270 31716 ft 503 kts 144°
2026-04-14 09:55 -26.08377 151.82903 31126 ft 504 kts 144°
2026-04-14 09:55 -26.10993 151.85515 30549 ft 505 kts 144°
2026-04-14 09:55 -26.13609 151.88126 30079 ft 501 kts 143°
2026-04-14 09:56 -26.16223 151.90738 29652 ft 496 kts 143°
2026-04-14 09:56 -26.18760 151.93281 28920 ft 488 kts 143°
2026-04-14 09:56 -26.21255 151.95791 28180 ft 477 kts 143°
2026-04-14 09:56 -26.23686 151.98239 27672 ft 462 kts 143°
2026-04-14 09:57 -26.26032 152.00604 27267 ft 447 kts 143°
2026-04-14 09:57 -26.28358 152.02939 26806 ft 444 kts 143°
2026-04-14 09:57 -26.30659 152.05240 26332 ft 445 kts 143°
2026-04-14 09:57 -26.32965 152.07546 25875 ft 445 kts 143°
2026-04-14 09:58 -26.35293 152.09876 25386 ft 444 kts 143°
2026-04-14 09:58 -26.37585 152.12181 25031 ft 440 kts 143°
2026-04-14 09:58 -26.39870 152.14482 24681 ft 436 kts 143°
2026-04-14 09:58 -26.42122 152.16748 24321 ft 433 kts 143°
2026-04-14 09:59 -26.44330 152.18973 23702 ft 425 kts 143°
2026-04-14 09:59 -26.46537 152.21201 22935 ft 418 kts 143°
2026-04-14 09:59 -26.48666 152.23353 22370 ft 407 kts 143°
2026-04-14 09:59 -26.50728 152.25442 21892 ft 394 kts 143°
2026-04-14 10:00 -26.52723 152.27465 21444 ft 381 kts 143°
2026-04-14 10:00 -26.54655 152.29418 20995 ft 369 kts 143°
2026-04-14 10:00 -26.56530 152.31313 20553 ft 359 kts 143°
2026-04-14 10:00 -26.58384 152.33186 20107 ft 350 kts 143°
2026-04-14 10:01 -26.60170 152.34988 19676 ft 343 kts 143°
2026-04-14 10:01 -26.61946 152.36774 19255 ft 342 kts 143°
2026-04-14 10:01 -26.63706 152.38543 18861 ft 340 kts 143°
2026-04-14 10:01 -26.65478 152.40344 18468 ft 340 kts 142°
2026-04-14 10:02 -26.67227 152.42141 18037 ft 343 kts 142°
2026-04-14 10:02 -26.68983 152.43955 17611 ft 344 kts 142°
2026-04-14 10:02 -26.70742 152.45776 17214 ft 344 kts 141°
2026-04-14 10:02 -26.72497 152.47594 16803 ft 345 kts 141°
2026-04-14 10:03 -26.74293 152.49455 16387 ft 345 kts 141°
2026-04-14 10:03 -26.76054 152.51280 15979 ft 346 kts 141°
2026-04-14 10:03 -26.77244 152.52514 15705 ft 346 kts 140°
2026-04-14 10:03 -26.79038 152.54374 15286 ft 346 kts 140°
2026-04-14 10:04 -26.80797 152.56197 14871 ft 346 kts 140°
2026-04-14 10:04 -26.82565 152.58027 14461 ft 345 kts 140°
2026-04-14 10:04 -26.84339 152.59843 14059 ft 345 kts 140°
2026-04-14 10:04 -26.86115 152.61642 13580 ft 345 kts 139°
2026-04-14 10:05 -26.87897 152.63489 13130 ft 344 kts 139°
2026-04-14 10:05 -26.89645 152.65309 12681 ft 343 kts 139°
2026-04-14 10:05 -26.91500 152.67015 12224 ft 340 kts 150°
2026-04-14 10:05 -26.93648 152.68071 11776 ft 336 kts 161°
2026-04-14 10:06 -26.95845 152.68966 11355 ft 335 kts 161°
2026-04-14 10:06 -26.98028 152.69851 11029 ft 330 kts 161°
2026-04-14 10:06 -27.00188 152.70724 10793 ft 323 kts 161°
2026-04-14 10:06 -27.02278 152.71570 10557 ft 316 kts 160°
2026-04-14 10:07 -27.04339 152.72409 10324 ft 310 kts 160°
2026-04-14 10:07 -27.06347 152.73228 10087 ft 305 kts 160°
2026-04-14 10:07 -27.08320 152.74032 9891 ft 298 kts 160°
2026-04-14 10:07 -27.10266 152.74824 9751 ft 289 kts 160°
2026-04-14 10:08 -27.12144 152.75590 9631 ft 285 kts 160°
2026-04-14 10:08 -27.14011 152.76351 9493 ft 286 kts 160°
2026-04-14 10:08 -27.15876 152.77109 9368 ft 284 kts 160°
2026-04-14 10:08 -27.17727 152.77863 9237 ft 282 kts 160°
2026-04-14 10:09 -27.19577 152.78615 9111 ft 282 kts 160°
2026-04-14 10:09 -27.21428 152.79370 8988 ft 282 kts 160°
2026-04-14 10:09 -27.23274 152.80123 8859 ft 281 kts 161°
2026-04-14 10:09 -27.25107 152.80871 8733 ft 281 kts 160°
2026-04-14 10:10 -27.26938 152.81616 8610 ft 281 kts 160°
2026-04-14 10:10 -27.28754 152.82360 8487 ft 279 kts 161°
2026-04-14 10:10 -27.30602 152.83117 8368 ft 280 kts 161°
2026-04-14 10:10 -27.32440 152.83869 8241 ft 279 kts 161°
2026-04-14 10:11 -27.34278 152.84620 8115 ft 278 kts 161°
2026-04-14 10:11 -27.36114 152.85370 7991 ft 278 kts 161°
2026-04-14 10:11 -27.37922 152.86110 7873 ft 277 kts 161°
2026-04-14 10:11 -27.39757 152.86860 7747 ft 276 kts 161°
2026-04-14 10:12 -27.41576 152.87607 7625 ft 276 kts 161°
2026-04-14 10:12 -27.43420 152.88364 7496 ft 275 kts 161°
2026-04-14 10:12 -27.45234 152.89109 7097 ft 279 kts 161°
2026-04-14 10:12 -27.47063 152.89859 6881 ft 275 kts 161°
2026-04-14 10:13 -27.48831 152.90584 6756 ft 263 kts 161°
2026-04-14 10:13 -27.50587 152.91304 6515 ft 248 kts 161°
2026-04-14 10:13 -27.52133 152.91941 6351 ft 241 kts 161°
2026-04-14 10:13 -27.53735 152.92625 5826 ft 246 kts 160°
2026-04-14 10:14 -27.55343 152.93351 5274 ft 247 kts 154°
2026-04-14 10:14 -27.56693 152.94536 4704 ft 249 kts 129°
2026-04-14 10:14 -27.57485 152.96342 4323 ft 249 kts 103°
2026-04-14 10:14 -27.57599 152.98251 4082 ft 244 kts 88°
2026-04-14 10:15 -27.57560 152.99528 3977 ft 238 kts 85°
2026-04-14 10:15 -27.57130 153.01288 3845 ft 222 kts 59°
2026-04-14 10:15 -27.56209 153.02578 3642 ft 207 kts 38°
2026-04-14 10:15 -27.54999 153.03395 3291 ft 200 kts 27°
2026-04-14 10:16 -27.53770 153.04095 2959 ft 191 kts 27°
2026-04-14 10:16 -27.52626 153.04748 2708 ft 177 kts 27°
2026-04-14 10:16 -27.51575 153.05350 2471 ft 162 kts 28°
2026-04-14 10:16 -27.50616 153.05899 2265 ft 148 kts 28°
2026-04-14 10:17 -27.49715 153.06416 2088 ft 138 kts 29°
2026-04-14 10:17 -27.48868 153.06901 1907 ft 136 kts 29°
2026-04-14 10:17 -27.48018 153.07389 1718 ft 135 kts 30°
2026-04-14 10:17 -27.47182 153.07868 1540 ft 134 kts 30°
2026-04-14 10:18 -27.45496 153.08834 1180 ft 135 kts 29°
2026-04-14 10:18 -27.44668 153.09308 1013 ft 136 kts 28°
2026-04-14 10:18 -27.43814 153.09793 786 ft 137 kts 27°
2026-04-14 10:19 -27.42952 153.10295 618 ft 140 kts 28°
2026-04-14 10:19 -27.42074 153.10802 442 ft 139 kts 28°
2026-04-14 10:19 -27.41205 153.11295 282 ft 139 kts 27°
2026-04-14 10:19 -27.40347 153.11782 97 ft 137 kts 28°
2026-04-14 10:20 -27.39565 153.12235 21 ft 98 kts 27°
2026-04-14 10:20 -27.39169 153.12469 20 ft 49 kts 28°
2026-04-14 10:20 -27.38913 153.12607 21 ft 45 kts 25°
2026-04-14 10:20 -27.38621 153.12665 22 ft 42 kts 355°
2026-04-14 10:21 -27.38387 153.12624 22 ft 26 kts 313°
2026-04-14 10:21 -27.38433 153.12513 21 ft 16 kts 201°
2026-04-14 10:21 -27.38542 153.12451 23 ft 19 kts 205°
2026-04-14 10:21 -27.38670 153.12379 21 ft 21 kts 207°
2026-04-14 10:22 -27.38772 153.12318 24 ft 17 kts 207°
2026-04-14 10:22 -27.38782 153.12198 24 ft 18 kts 287°
2026-04-14 10:22 -27.38746 153.12106 21 ft 19 kts 312°
2026-04-14 10:22 -27.38619 153.12082 21 ft 11 kts 311°
2026-04-14 10:23 -27.38613 153.12072 21 ft 0 kts 306°